Location: Newark
(44.4156°N, 12.1972°E)
Time: 18:47:54
(UTC+00:00)

STARLINK-1095 - Pass Details

Date: 04 February 2020
Orbit: 348 x 351 km, 53.0° (Epoch: 18 February)

Event Time Altitude Azimuth Distance (km) Brightness Sun altitude
Rises 17:06:07 0° 292° (WNW) 2,164 7.6 -8.0°
Reaches altitude 10° 17:08:30 10° 273° (W) 1,317 7.0 -8.4°
Maximum altitude 17:10:38 18° 226° (SW) 936 5.7 -8.8°
Drops below altitude 10° 17:12:46 10° 179° (S) 1,310 5.7 -9.1°
Sets 17:15:07 0° 160° (SSE) 2,148 6.6 -9.5°
